This demonstration page uses our WeatherBlox Daily Observations layout. Learn more.

Hourly Observations for November 9, 2016

Temp ( °F °C ) Dew Point ( °F °C ) Humidity (%) Winds ( mph kmh ) Pressure ( in mb ) Visibility ( mi km ) Precip ( " mm )
12:54 am 00:54 Clear 36 2.2 32 0 86 86 N 3 6 30.48 1032 10 16.0934 0 0
1:54 am 01:54 Clear 34 1.1 31 -0.6 89 89 Calm 30.48 1032 10 16.0934 0 0
2:54 am 02:54 Clear 32 0 29 -1.7 88 88 Calm 30.48 1032 10 16.0934 0 0
3:54 am 03:54 Clear 34 1.1 31 -0.6 89 89 Calm 30.46 1032 10 16.0934 0 0
4:54 am 04:54 Clear 33 0.6 30 -1.1 89 89 Calm 30.48 1032 10 16.0934 0 0
5:54 am 05:54 Clear 27 -2.8 26 -3.3 96 96 N 6 9 30.49 1033 10 16.0934 0 0
6:54 am 06:54 Clear 29 -1.7 27 -2.8 92 92 Calm 30.48 1032 10 16.0934 0 0
7:54 am 07:54 Sunny 31 -0.6 30 -1.1 96 96 SSE 3 6 30.48 1032 10 16.0934 0 0
8:54 am 08:54 Sunny 37 2.8 34 1.1 89 89 Calm 30.47 1032 10 16.0934 0 0
9:54 am 09:54 Sunny 46 7.8 40 4.4 79 79 Calm 30.47 1032 10 16.0934 0 0
10:54 am 10:54 Sunny 54 12.2 39 3.9 57 57 SSW 10 17 30.45 1031 10 16.0934 0 0
11:54 am 11:54 Sunny 57 13.9 39 3.9 51 51 SW 10 17 30.42 1030 10 16.0934 0 0
12:54 pm 12:54 Sunny 59 15 36 2.2 42 42 SSW 9 15 30.39 1029 10 16.0934 0 0
1:54 pm 13:54 Sunny 60 15.6 36 2.2 41 41 SW 12 19 30.36 1028 10 16.0934 0 0
2:54 pm 14:54 Sunny 61 16.1 35 1.7 38 38 WSW 12 19 30.34 1027 10 16.0934 0 0
3:54 pm 15:54 Sunny 61 16.1 35 1.7 38 38 SSW 12 19 30.32 1027 10 16.0934 0 0
4:54 pm 16:54 Sunny 58 14.4 36 2.2 44 44 SSW 7 11 30.31 1027 10 16.0934 0 0
5:54 pm 17:54 Clear 48 8.9 35 1.7 61 61 S 7 11 30.32 1027 10 16.0934 0 0
6:54 pm 18:54 Clear 46 7.8 35 1.7 66 66 S 5 7 30.32 1027 10 16.0934 0 0
7:54 pm 19:54 Clear 45 7.2 35 1.7 68 68 SSE 7 11 30.32 1027 10 16.0934 0 0
8:54 pm 20:54 Clear 42 5.6 35 1.7 76 76 S 7 11 30.31 1026 10 16.0934 0 0
9:54 pm 21:54 Clear 39 3.9 33 0.6 79 79 S 9 15 30.28 1026 10 16.0934 0 0
10:54 pm 22:54 Clear 42 5.6 34 1.1 73 73 S 6 9 30.27 1025 10 16.0934 0 0
11:54 pm 23:54 Clear 45 7.2 35 1.7 68 68 SSW 8 13 30.26 1025 10 16.0934 0 0

Powered by AerisWeather